Simultaneous Nadir Overpasses (SNOs) Predictions

Prediction of SNOs between AQUA and NPP Satellite Orbit:

Table of predicted SNOs for the next 14.0 days since TLE Epoch: 6/6/2015
Index Date (AQUA) Time (AQUA) Lat,Lon (AQUA) SZA (AQUA ) Date (NPP) Time (NPP) Lat,Lon (NPP) SZA (NPP ) Distance(km) Time Diff (sec)
1 06/07/2015 03:11:28 -53.42, 167.28 81.95 06/07/2015 03:10:15 -53.49, 166.72 81.73 38.03 73
2 06/07/2015 03:55:49 70.82, -10.62 80.62 06/07/2015 03:55:45 70.82, -10.56 80.60 2.15 4
3 06/07/2015 04:44:39 -72.85, 160.51 101.56 06/07/2015 04:45:52 -72.84, 160.48 101.62 0.95 73
4 06/09/2015 19:23:41 -68.21, -65.90 96.88 06/09/2015 19:22:45 -68.21, -65.89 96.83 0.34 56
5 06/09/2015 20:12:09 71.36, 106.11 79.84 06/09/2015 20:12:29 71.36, 106.11 79.82 0.11 20
6 06/12/2015 11:39:51 -69.29, 51.32 98.15 06/12/2015 11:39:19 -69.29, 51.32 98.12 0.24 32
7 06/12/2015 12:28:23 72.19,-136.59 78.79 06/12/2015 12:29:07 72.19,-136.59 78.75 0.07 44
8 06/15/2015 03:55:54 -70.67, 169.13 99.69 06/15/2015 03:55:46 -70.67, 169.16 99.70 1.33 8
9 06/15/2015 04:44:32 73.20, -18.79 77.59 06/15/2015 04:45:40 73.21, -18.73 77.51 2.31 68
10 06/17/2015 19:23:47 67.77, 113.57 83.27 06/17/2015 19:22:48 67.76, 113.53 83.35 1.75 59
11 06/17/2015 20:12:09 -71.40, -73.84 100.53 06/17/2015 20:12:26 -71.40, -73.84 100.55 0.10 17




NCC Satellite Simultaneous Nadir Overpasses (SNOs) Prediction Service
